COSMOS 2501 (702K)

Last updated on Wed May 14 2025 00:03:12 GMT+0000 (Coordinated Universal Time)

1 40315U 14075A 25133.02253224 .00000054 00000+0 00000+0 0 9991 2 40315 63.6140 204.2283 0021229 209.9131 150.0450 2.13101494 81321
UTC large
Height (km)
Speed (km/s)
/
Latitude / Longitude
Inclination (degrees)
Orbital Period (minutes)
Azimuth
Elevation
Range (km)
Doppler Factor

Next 0 passes for location: London (51.5072 / 0.1276)

Sorry there are no passes over London.